Mesquite, TX

1:07 PM CDT on June 22, 2017 (GMT -0500)
Mesquite Metro

Weather History for KHQZ - December, 2013

Change the Weather History Date:

Tuesday, December 3, 2013

  Actual Average (KDFW) Record (KDFW)
Temperature  
Mean Temperature 54 °F -  
Max Temperature 73 °F 59 °F 89 °F (2005)
Min Temperature 35 °F 40 °F 21 °F (1929)
Degree Days  
Heating Degree Days 11    
Growing Degree Days 4 (Base 50)    
Moisture  
Dew Point 40 °F    
Average Humidity 69    
Maximum Humidity 97    
Minimum Humidity 24    
Precipitation  
Precipitation 0.00 in - - ()
Sea Level Pressure  
Sea Level Pressure 29.60 in    
Wind  
Wind Speed 3 mph (South)    
Max Wind Speed 9 mph    
Max Gust Speed -    
Visibility 6 miles    
Events      
Averages and records for this station are not official NWS values.
T = Trace of Precipitation, MM = Missing Value Source: NWS Daily Summary

Daily Weather History Graph

Daily Weather History Graph

Search for Another Location

Airport or City:

Trip Planner

Search our weather history database for the weather conditions in past years. The results will help you decide how hot, cold, wet, or windy it might be!

Date:

Astronomy

Dec. 03, 2013 Rise Set
Actual Time 7:12 AM CST 5:19 PM CST
Civil Twilight 6:45 AM CST 5:46 PM CST
Nautical Twilight 6:14 AM CST 6:17 PM CST
Astronomical Twilight 5:45 AM CST 6:47 PM CST
Moon 7:44 AM CST (12/3) 6:23 PM CST (12/3)
Length of Visible Light 11h 01m
Length of Day
10h 07m
New Moon, 1% of the Moon is Illuminated
Dec 3
New Moon
Dec 9
First Quarter
Dec 17
Full
Dec 25
Last Quarter
Jan 1
New

Hourly Weather History & Observations

Time (CST) Temp. Windchill Dew Point Humidity Pressure Visibility Wind Dir Wind Speed Gust Speed Precip Events Conditions
12:15 AM 46.8 °F - 44.8 °F 93% 29.69 in 4.0 mi Calm Calm - N/A   Clear
12:35 AM 44.4 °F - 42.8 °F 94% 29.67 in 0.2 mi Calm Calm - N/A   Unknown
12:55 AM 44.6 °F - 42.8 °F 93% 29.66 in 3.0 mi Calm Calm - N/A   Clear
1:15 AM 43.0 °F 41.3 °F 41.4 °F 94% 29.66 in 0.2 mi North 3.5 mph - N/A   Unknown
1:35 AM 42.1 °F - 40.8 °F 95% 29.65 in 0.2 mi Calm Calm - N/A   Unknown
1:55 AM 41.4 °F - 40.1 °F 95% 29.64 in 0.5 mi Calm Calm - N/A   Unknown
2:15 AM 42.6 °F - 41.4 °F 95% 29.64 in 0.2 mi Calm Calm - N/A   Unknown
2:35 AM 42.1 °F - 41.0 °F 96% 29.64 in 0.2 mi Calm Calm - N/A   Unknown
2:55 AM 41.9 °F - 40.8 °F 96% 29.63 in 0.2 mi Calm Calm - N/A   Unknown
3:15 AM 39.6 °F - 38.5 °F 96% 29.62 in 0.2 mi Calm Calm - N/A   Unknown
3:35 AM 41.0 °F - 39.9 °F 96% 29.62 in 0.2 mi Calm Calm - N/A   Mostly Cloudy
3:55 AM 40.1 °F - 39.2 °F 97% 29.61 in 0.2 mi Calm Calm - N/A   Mostly Cloudy
4:15 AM 40.5 °F - 39.4 °F 96% 29.61 in 0.2 mi Calm Calm - N/A   Unknown
4:35 AM 40.6 °F - 39.6 °F 96% 29.61 in 0.2 mi Calm Calm - N/A   Unknown
4:55 AM 38.3 °F - 37.4 °F 97% 29.61 in - Calm Calm - N/A   Unknown
5:15 AM 39.4 °F - 38.5 °F 97% 29.60 in 0.2 mi Calm Calm - N/A   Unknown
5:35 AM 39.6 °F - 38.5 °F 96% 29.60 in 0.2 mi Calm Calm - N/A   Unknown
5:55 AM 37.6 °F - 36.7 °F 97% 29.60 in 0.2 mi Calm Calm - N/A   Unknown
6:15 AM 36.0 °F - 35.2 °F 97% 29.60 in 0.2 mi Calm Calm - N/A   Unknown
6:35 AM 37.4 °F - 36.5 °F 97% 29.60 in 0.2 mi Calm Calm - N/A   Unknown
6:55 AM 35.8 °F - 35.1 °F 97% 29.59 in 0.5 mi Calm Calm - N/A   Unknown
7:15 AM 38.3 °F 35.9 °F 37.4 °F 97% 29.59 in 0.5 mi SSE 3.5 mph - N/A   Unknown
7:35 AM 38.5 °F - 37.6 °F 97% 29.60 in 0.2 mi Calm Calm - N/A   Overcast
7:55 AM 39.6 °F 37.4 °F 38.7 °F 97% 29.60 in 0.2 mi South 3.5 mph - N/A   Overcast
8:15 AM 41.4 °F 36.8 °F 40.3 °F 96% 29.60 in 0.2 mi South 6.9 mph - N/A   Overcast
8:35 AM 42.4 °F 38.1 °F 41.4 °F 96% 29.59 in 0.2 mi South 6.9 mph - N/A   Overcast
8:55 AM 44.4 °F 40.5 °F 43.3 °F 96% 29.60 in 1.8 mi South 6.9 mph - N/A   Mostly Cloudy
9:15 AM 47.7 °F - 46.4 °F 95% 29.62 in 7.0 mi SSW 6.9 mph - N/A   Clear
9:35 AM 47.7 °F - 46.4 °F 95% 29.62 in 10.0 mi SSW 6.9 mph - N/A   Clear
9:55 AM 49.1 °F - 47.8 °F 95% 29.62 in 10.0 mi SSW 3.5 mph - N/A   Clear
10:15 AM 53.2 °F - 50.2 °F 89% 29.63 in 10.0 mi SSW 5.8 mph - N/A   Clear
10:35 AM 57.4 °F - 45.1 °F 64% 29.62 in 10.0 mi South 9.2 mph - N/A   Clear
10:55 AM 59.7 °F - 45.3 °F 59% 29.61 in 10.0 mi South 8.1 mph - N/A   Clear
11:15 AM 61.2 °F - 43.7 °F 53% 29.61 in 10.0 mi South 6.9 mph - N/A   Clear
11:35 AM 63.3 °F - 43.7 °F 49% 29.60 in 10.0 mi South 6.9 mph - N/A   Clear
11:55 AM 64.6 °F - 42.3 °F 44% 29.59 in 10.0 mi SSW 6.9 mph - N/A   Clear
12:15 PM 66.2 °F - 41.0 °F 40% 29.58 in 10.0 mi SSW 5.8 mph - N/A   Clear
12:35 PM 67.1 °F - 38.8 °F 35% 29.57 in 10.0 mi South 5.8 mph - N/A   Clear
12:55 PM 68.0 °F - 36.9 °F 32% 29.57 in 10.0 mi SW 4.6 mph - N/A   Clear
1:15 PM 70.2 °F - 35.2 °F 28% 29.56 in 10.0 mi SW 3.5 mph - N/A   Clear
1:35 PM 71.2 °F - 34.0 °F 25% 29.56 in 10.0 mi SW 8.1 mph - N/A   Clear
1:55 PM 71.6 °F - 33.4 °F 25% 29.55 in 10.0 mi SW 9.2 mph - N/A   Clear
2:15 PM 71.8 °F - 33.3 °F 24% 29.55 in 10.0 mi SW 9.2 mph - N/A   Clear
2:35 PM 72.0 °F - 32.7 °F 24% 29.54 in 10.0 mi SW 6.9 mph - N/A   Clear
2:55 PM 73.2 °F - 34.5 °F 24% 29.54 in 10.0 mi SSW 9.2 mph - N/A   Clear
3:15 PM 72.7 °F - 33.6 °F 24% 29.54 in 10.0 mi SW 5.8 mph - N/A   Clear
3:35 PM 72.5 °F - 34.2 °F 25% 29.54 in 10.0 mi SSW 4.6 mph - N/A   Clear
3:55 PM 71.6 °F - 35.2 °F 26% 29.54 in 10.0 mi Calm Calm - N/A   Clear
4:15 PM 70.9 °F - 35.1 °F 27% 29.55 in 10.0 mi Calm Calm - N/A   Clear
4:35 PM 69.6 °F - 35.6 °F 29% 29.55 in 10.0 mi Calm Calm - N/A   Clear
4:55 PM 68.7 °F - 36.0 °F 30% 29.56 in 10.0 mi ESE 4.6 mph - N/A   Clear
5:15 PM 66.6 °F - 36.7 °F 33% 29.56 in 10.0 mi ESE 3.5 mph - N/A   Clear
5:35 PM 63.3 °F - 37.6 °F 39% 29.56 in 10.0 mi Calm Calm - N/A   Clear
5:55 PM 61.7 °F - 37.9 °F 41% 29.57 in 7.0 mi Calm Calm - N/A   Clear
6:15 PM 56.5 °F - 36.3 °F 47% 29.57 in 5.0 mi ESE 4.6 mph - N/A   Clear
6:35 PM 58.8 °F - 38.7 °F 47% 29.57 in 7.0 mi ESE 4.6 mph - N/A   Clear
6:55 PM 58.8 °F - 39.9 °F 50% 29.58 in 10.0 mi SE 6.9 mph - N/A   Clear
7:15 PM 57.0 °F - 41.0 °F 55% 29.58 in 10.0 mi SSE 4.6 mph - N/A   Clear
7:35 PM 57.6 °F - 42.8 °F 58% 29.58 in 10.0 mi SSE 5.8 mph - N/A   Clear
7:55 PM 55.6 °F - 42.6 °F 62% 29.59 in 10.0 mi SSE 3.5 mph - N/A   Clear
8:15 PM 55.9 °F - 44.6 °F 66% 29.59 in 10.0 mi Calm Calm - N/A   Clear
8:35 PM 54.7 °F - 44.8 °F 69% 29.59 in 10.0 mi SSE 3.5 mph - N/A   Clear
8:55 PM 54.0 °F - 45.7 °F 74% 29.59 in 10.0 mi SE 4.6 mph - N/A   Clear
9:15 PM 53.6 °F - 44.8 °F 72% 29.60 in 10.0 mi SSE 5.8 mph - N/A   Clear
9:35 PM 51.8 °F - 45.5 °F 79% 29.60 in 10.0 mi SSE 5.8 mph - N/A   Clear
9:55 PM 52.7 °F - 45.5 °F 76% 29.60 in 10.0 mi SSE 6.9 mph - N/A   Clear
10:15 PM 52.0 °F - 45.7 °F 79% 29.61 in 10.0 mi SSE 5.8 mph - N/A   Clear
10:35 PM 51.1 °F - 45.5 °F 81% 29.61 in 10.0 mi South 6.9 mph - N/A   Clear
10:55 PM 51.1 °F - 46.2 °F 83% 29.61 in 10.0 mi South 6.9 mph - N/A   Clear
11:15 PM 51.1 °F - 45.9 °F 82% 29.61 in 10.0 mi SSE 6.9 mph - N/A   Clear
11:35 PM 50.9 °F - 45.0 °F 80% 29.61 in 10.0 mi SSE 5.8 mph - N/A   Clear
11:55 PM 53.1 °F - 46.8 °F 79% 29.61 in 10.0 mi South 4.6 mph - N/A   Clear